Radioactive Concentration measured by Seawater Radiation Monitor near Fukushima Daiichi Nuclear Power Station
Date,Time,Cs137(Bq/L),Cs134(Bq/L),Total β(Bq/L)
2019/04/12,00:00,-,-,ND
2019/04/12,00:10,-,-,9.0
2019/04/12,00:20,-,-,14
2019/04/12,00:30,-,-,14
2019/04/12,00:40,-,-,10
2019/04/12,00:50,-,-,12
2019/04/12,01:00,-,-,13
2019/04/12,01:10,-,-,15
2019/04/12,01:20,-,-,13
2019/04/12,01:30,-,-,13
2019/04/12,01:40,-,-,14
2019/04/12,01:50,-,-,12
2019/04/12,02:00,-,-,12
2019/04/12,02:10,-,-,9.2
2019/04/12,02:20,-,-,9.2
2019/04/12,02:30,-,-,ND
2019/04/12,02:40,-,-,10
2019/04/12,02:50,-,-,10
2019/04/12,03:00,-,-,10
2019/04/12,03:10,-,-,9.0
2019/04/12,03:20,-,-,11
2019/04/12,03:30,-,-,11
2019/04/12,03:40,-,-,11
2019/04/12,03:50,-,-,13
2019/04/12,04:00,-,-,13
2019/04/12,04:10,-,-,12
2019/04/12,04:20,-,-,11
2019/04/12,04:30,-,-,11
2019/04/12,04:40,-,-,10
2019/04/12,04:50,-,-,ND
2019/04/12,05:00,-,-,8.8
2019/04/12,05:10,-,-,9.3
2019/04/12,05:20,-,-,10
2019/04/12,05:30,-,-,10
2019/04/12,05:40,-,-,12
2019/04/12,05:50,-,-,13
2019/04/12,06:00,-,-,14
2019/04/12,06:10,-,-,16
2019/04/12,06:20,-,-,15
2019/04/12,06:30,-,-,13
2019/04/12,06:40,-,-,13
2019/04/12,06:50,-,-,15
2019/04/12,07:00,-,-,13
2019/04/12,07:10,-,-,12
2019/04/12,07:20,-,-,11
2019/04/12,07:30,-,-,14
2019/04/12,07:40,-,-,14
2019/04/12,07:50,-,-,15
2019/04/12,08:00,-,-,17
2019/04/12,08:10,-,-,18
2019/04/12,08:20,-,-,17
2019/04/12,08:30,-,-,14
2019/04/12,08:40,-,-,13
2019/04/12,08:50,-,-,10
2019/04/12,09:00,-,-,10
2019/04/12,09:10,-,-,11
2019/04/12,09:20,-,-,14
2019/04/12,09:30,-,-,16
2019/04/12,09:40,-,-,17
2019/04/12,09:50,-,-,18
2019/04/12,10:00,-,-,20
2019/04/12,10:10,-,-,19
2019/04/12,10:20,-,-,17
2019/04/12,10:30,-,-,17
2019/04/12,10:40,-,-,18
2019/04/12,10:50,-,-,17
2019/04/12,11:00,-,-,17
2019/04/12,11:10,-,-,14
2019/04/12,11:20,-,-,16
2019/04/12,11:30,-,-,16
2019/04/12,11:40,-,-,15
2019/04/12,11:50,-,-,16
2019/04/12,12:00,-,-,15
2019/04/12,12:10,-,-,14
2019/04/12,12:20,-,-,14
2019/04/12,12:30,-,-,13
2019/04/12,12:40,-,-,13
2019/04/12,12:50,-,-,11
2019/04/12,13:00,-,-,12
2019/04/12,13:10,-,-,13
2019/04/12,13:20,-,-,12
2019/04/12,13:30,-,-,12
2019/04/12,13:40,-,-,ND
2019/04/12,13:50,-,-,ND
2019/04/12,14:00,-,-,ND
2019/04/12,14:10,-,-,9.3
2019/04/12,14:20,-,-,11
2019/04/12,14:30,-,-,13
2019/04/12,14:40,-,-,16
2019/04/12,14:50,-,-,19
2019/04/12,15:00,-,-,18
2019/04/12,15:10,-,-,18
2019/04/12,15:20,-,-,16
2019/04/12,15:30,-,-,14
2019/04/12,15:40,-,-,13
2019/04/12,15:50,-,-,14
2019/04/12,16:00,-,-,14
2019/04/12,16:10,-,-,14
2019/04/12,16:20,-,-,16
2019/04/12,16:30,-,-,17
2019/04/12,16:40,-,-,17
2019/04/12,16:50,-,-,15
2019/04/12,17:00,-,-,14
2019/04/12,17:10,-,-,14
2019/04/12,17:20,-,-,12
2019/04/12,17:30,-,-,12
2019/04/12,17:40,-,-,13
2019/04/12,17:50,-,-,12
2019/04/12,18:00,-,-,12
2019/04/12,18:10,-,-,12
2019/04/12,18:20,-,-,12
2019/04/12,18:30,-,-,12
2019/04/12,18:40,-,-,9.0
2019/04/12,18:50,-,-,8.8
2019/04/12,19:00,-,-,11
2019/04/12,19:10,-,-,13
2019/04/12,19:20,-,-,10
2019/04/12,19:30,-,-,9.2
2019/04/12,19:40,-,-,9.9
2019/04/12,19:50,-,-,9.9
2019/04/12,20:00,-,-,ND
2019/04/12,20:10,-,-,ND
2019/04/12,20:20,-,-,9.6
2019/04/12,20:30,-,-,8.9
2019/04/12,20:40,-,-,ND
2019/04/12,20:50,-,-,ND
2019/04/12,21:00,-,-,ND
2019/04/12,21:10,-,-,ND
2019/04/12,21:20,-,-,9.0
2019/04/12,21:30,-,-,10
2019/04/12,21:40,-,-,9.7
2019/04/12,21:50,-,-,9.6
2019/04/12,22:00,-,-,ND
2019/04/12,22:10,-,-,10
2019/04/12,22:20,-,-,11
2019/04/12,22:30,-,-,11
2019/04/12,22:40,-,-,14
2019/04/12,22:50,-,-,15
2019/04/12,23:00,-,-,19
2019/04/12,23:10,-,-,16
2019/04/12,23:20,-,-,12
2019/04/12,23:30,-,-,13
2019/04/12,23:40,-,-,13
2019/04/12,23:50,-,-,11
